Meadow Lake, CO

8:16 PM MDT on April 24, 2017 (GMT -0600)
Meadow Lake

Weather History for KFLY - February, 2013

Change the Weather History Date:

Wednesday, February 6, 2013

  Actual Average (KCOS) Record (KCOS)
Temperature  
Mean Temperature 42 °F -  
Max Temperature 57 °F 38 °F 72 °F (2015)
Min Temperature 28 °F 15 °F -16 °F (1899)
Degree Days  
Heating Degree Days 22    
Moisture  
Dew Point 22 °F    
Average Humidity 54    
Maximum Humidity 99    
Minimum Humidity 21    
Precipitation  
Precipitation 0.00 in - - ()
Sea Level Pressure  
Sea Level Pressure 29.90 in    
Wind  
Wind Speed 8 mph (North)    
Max Wind Speed 20 mph    
Max Gust Speed 28 mph    
Visibility 9 miles    
Events Rain , Snow    
Averages and records for this station are not official NWS values.
T = Trace of Precipitation, MM = Missing Value Source: NWS Daily Summary

Daily Weather History Graph

Daily Weather History Graph

Search for Another Location

Airport or City:

Trip Planner

Search our weather history database for the weather conditions in past years. The results will help you decide how hot, cold, wet, or windy it might be!

Date:

Astronomy

Feb. 06, 2013 Rise Set
Actual Time 6:59 AM MST 5:25 PM MST
Civil Twilight 6:31 AM MST 5:53 PM MST
Nautical Twilight 6:00 AM MST 6:25 PM MST
Astronomical Twilight 5:28 AM MST 6:56 PM MST
Moon 3:44 AM MST (2/6) 1:47 PM MST (2/6)
Length of Visible Light 11h 21m
Length of Day
10h 26m
Waning Crescent, 16% of the Moon is Illuminated
Feb 6
Waning Crescent
Feb 10
New
Feb 17
First Quarter
Feb 25
Full
Mar 4
Last Quarter

Hourly Weather History & Observations

Time (MST) Temp. Windchill Dew Point Humidity Pressure Visibility Wind Dir Wind Speed Gust Speed Precip Events Conditions
12:13 AM 28.8 °F 22.6 °F 16.3 °F 60% 29.91 in 10.0 mi WNW 5.8 mph - N/A   Clear
12:33 AM 29.8 °F 23.0 °F 16.2 °F 57% 29.90 in 10.0 mi West 6.9 mph - N/A   Clear
1:13 AM 28.4 °F - 15.4 °F 58% 29.89 in 10.0 mi Calm Calm - N/A   Clear
1:33 AM 30.9 °F 24.3 °F 14.5 °F 51% 29.87 in 10.0 mi South 6.9 mph - N/A   Clear
1:53 AM 36.1 °F 32.3 °F 13.3 °F 39% 29.87 in 10.0 mi West 4.6 mph - N/A   Clear
2:13 AM 30.7 °F 24.1 °F 14.4 °F 51% 29.86 in 10.0 mi NW 6.9 mph - N/A   Clear
2:33 AM 29.8 °F - 15.1 °F 54% 29.86 in 10.0 mi Calm Calm - N/A   Clear
2:53 AM 32.7 °F 29.6 °F 14.0 °F 46% 29.86 in 10.0 mi NNE 3.5 mph - N/A   Clear
3:13 AM 33.6 °F 28.4 °F 13.5 °F 44% 29.85 in 10.0 mi NNE 5.8 mph - N/A   Clear
3:33 AM 36.0 °F - 13.3 °F 39% 29.84 in 10.0 mi Calm Calm - N/A   Clear
3:53 AM 34.7 °F - 12.9 °F 41% 29.84 in 10.0 mi Calm Calm - N/A   Clear
4:13 AM 33.1 °F - 13.6 °F 45% 29.84 in 10.0 mi Calm Calm - N/A   Clear
4:33 AM 37.6 °F 31.6 °F 12.7 °F 36% 29.84 in 10.0 mi West 8.1 mph - N/A   Clear
4:53 AM 40.6 °F 33.0 °F 14.7 °F 35% 29.83 in 10.0 mi NW 13.8 mph - N/A   Clear
5:13 AM 41.2 °F 34.5 °F 14.0 °F 33% 29.83 in 10.0 mi NW 11.5 mph - N/A   Clear
5:33 AM 41.9 °F 36.3 °F 13.8 °F 32% 29.83 in 10.0 mi West 9.2 mph 16.1 mph N/A   Clear
5:53 AM 39.2 °F 31.6 °F 14.2 °F 36% 29.83 in 10.0 mi NW 12.7 mph - N/A   Clear
6:33 AM 37.2 °F 31.2 °F 13.1 °F 37% 29.83 in 10.0 mi SW 8.1 mph - N/A   Clear
6:53 AM 39.2 °F 33.6 °F 13.3 °F 35% 29.84 in 10.0 mi ESE 8.1 mph - N/A   Clear
7:13 AM 37.2 °F 31.9 °F 14.0 °F 39% 29.85 in 10.0 mi NE 6.9 mph - N/A   Clear
7:33 AM 37.2 °F 32.6 °F 14.7 °F 40% 29.86 in 10.0 mi NE 5.8 mph - N/A   Clear
8:13 AM 43.0 °F 38.2 °F 15.4 °F 33% 29.86 in 10.0 mi NNW 8.1 mph - N/A   Clear
8:33 AM 46.9 °F - 15.8 °F 29% 29.87 in 10.0 mi North 11.5 mph - N/A   Clear
8:53 AM 48.2 °F - 16.7 °F 29% 29.87 in 10.0 mi North 15.0 mph 19.6 mph N/A   Clear
9:13 AM 49.5 °F - 16.9 °F 27% 29.87 in 10.0 mi North 13.8 mph 19.6 mph N/A   Clear
9:33 AM 50.0 °F - 17.2 °F 27% 29.87 in 10.0 mi North 12.7 mph 19.6 mph N/A   Clear
9:53 AM 50.2 °F - 17.2 °F 27% 29.87 in 10.0 mi North 9.2 mph 26.5 mph N/A   Clear
10:13 AM 50.7 °F - 17.2 °F 27% 29.88 in 10.0 mi North 12.7 mph 26.5 mph N/A   Clear
10:33 AM 52.0 °F - 17.1 °F 25% 29.88 in 10.0 mi North 12.7 mph 21.9 mph N/A   Clear
10:53 AM 52.0 °F - 16.9 °F 25% 29.88 in 10.0 mi North 11.5 mph 27.6 mph N/A   Clear
11:13 AM 52.7 °F - 17.2 °F 25% 29.87 in 10.0 mi NE 11.5 mph 18.4 mph N/A   Clear
11:33 AM 53.2 °F - 18.0 °F 25% 29.86 in 10.0 mi ENE 11.5 mph - N/A   Clear
11:53 AM 54.3 °F - 17.8 °F 24% 29.86 in 10.0 mi NE 11.5 mph - N/A   Clear
12:13 PM 54.3 °F - 17.8 °F 24% 29.85 in 10.0 mi North 8.1 mph - N/A   Clear
12:33 PM 54.7 °F - 17.4 °F 23% 29.84 in 10.0 mi ENE 10.4 mph - N/A   Clear
12:53 PM 55.6 °F - 17.1 °F 22% 29.83 in 10.0 mi NNE 4.6 mph - N/A   Scattered Clouds
1:13 PM 57.4 °F - 17.2 °F 21% 29.82 in 10.0 mi ENE 9.2 mph - N/A   Scattered Clouds
1:33 PM 53.8 °F - 16.3 °F 23% 29.82 in 10.0 mi ENE 4.6 mph - N/A   Mostly Cloudy
1:53 PM 51.8 °F - 17.4 °F 26% 29.83 in 10.0 mi Calm Calm - N/A   Mostly Cloudy
2:13 PM 50.5 °F - 19.2 °F 29% 29.84 in 10.0 mi NE 8.1 mph - N/A   Overcast
2:33 PM 48.2 °F - 21.7 °F 35% 29.85 in 10.0 mi East 8.1 mph - N/A   Overcast
2:53 PM 48.4 °F - 23.2 °F 37% 29.85 in 10.0 mi North 9.2 mph - N/A   Overcast
3:13 PM 47.5 °F - 23.5 °F 39% 29.86 in 10.0 mi North 8.1 mph - N/A   Overcast
3:33 PM 46.9 °F - 23.5 °F 40% 29.87 in 10.0 mi North 10.4 mph - N/A   Overcast
3:53 PM 45.5 °F 41.8 °F 25.3 °F 45% 29.88 in 10.0 mi North 6.9 mph - N/A   Overcast
4:13 PM 43.7 °F 39.1 °F 28.4 °F 55% 29.89 in 10.0 mi North 8.1 mph 19.6 mph N/A Rain Light Rain
4:33 PM 41.7 °F 37.3 °F 30.7 °F 65% 29.90 in 10.0 mi North 6.9 mph - N/A Rain Light Rain
4:53 PM 40.5 °F 36.5 °F 31.8 °F 71% 29.92 in 10.0 mi NW 5.8 mph - N/A Rain Light Rain
5:13 PM 37.4 °F 33.8 °F 33.1 °F 84% 29.93 in 5.0 mi NNW 4.6 mph - N/A Rain Light Rain
5:33 PM 36.9 °F 34.3 °F 34.0 °F 89% 29.93 in 5.0 mi North 3.5 mph - N/A Rain Light Rain
5:53 PM 33.8 °F 26.4 °F 32.4 °F 94% 29.94 in 4.0 mi NNE 9.2 mph - N/A Rain Light Rain
6:13 PM 32.9 °F 24.7 °F 32.4 °F 98% 29.94 in 1.8 mi NE 10.4 mph - N/A Snow Light Snow
6:33 PM 32.9 °F 24.7 °F 32.4 °F 98% 29.94 in 4.0 mi NNE 10.4 mph 18.4 mph N/A Snow Light Snow
6:53 PM 33.1 °F 24.4 °F 32.9 °F 99% 29.94 in 7.0 mi NNE 11.5 mph 18.4 mph N/A   Overcast
7:13 PM 33.4 °F 25.9 °F 32.5 °F 96% 29.95 in 10.0 mi NNE 9.2 mph - N/A   Overcast
7:33 PM 33.8 °F 26.4 °F 32.0 °F 93% 29.95 in 10.0 mi North 9.2 mph - N/A   Overcast
7:53 PM 34.3 °F 25.5 °F 32.0 °F 91% 29.96 in 10.0 mi NNE 12.7 mph 17.3 mph N/A   Overcast
8:13 PM 33.8 °F 23.9 °F 32.0 °F 93% 29.97 in 10.0 mi NNE 15.0 mph - N/A   Overcast
8:33 PM 33.3 °F 24.6 °F 32.0 °F 95% 29.98 in 10.0 mi NNE 11.5 mph 21.9 mph N/A   Overcast
8:53 PM 33.1 °F 22.6 °F 32.0 °F 96% 29.99 in 3.0 mi NNE 16.1 mph - N/A Snow Light Snow
9:13 PM 32.9 °F 23.2 °F 32.0 °F 96% 30.00 in 2.0 mi North 13.8 mph - N/A Snow Light Snow
9:33 PM 32.0 °F 22.1 °F 31.1 °F 96% 30.00 in 1.0 mi North 13.8 mph 19.6 mph N/A Snow Light Snow
9:53 PM 31.8 °F 22.8 °F 30.2 °F 94% 30.02 in 2.0 mi NNE 11.5 mph - N/A Snow Light Snow
10:13 PM 31.8 °F 20.6 °F 29.7 °F 92% 30.02 in 4.0 mi NNE 17.3 mph 23.0 mph N/A Snow Light Snow
10:33 PM 31.5 °F 19.4 °F 29.7 °F 93% 30.02 in 1.8 mi North 19.6 mph 25.3 mph N/A Snow Light Snow
10:53 PM 30.6 °F 19.4 °F 29.3 °F 95% 30.03 in 0.5 mi NNE 16.1 mph 21.9 mph N/A Snow Snow
11:13 PM 30.6 °F 20.7 °F 28.4 °F 92% 30.03 in 10.0 mi NNE 12.7 mph 19.6 mph N/A Snow Light Snow
11:33 PM 30.2 °F 18.9 °F 28.0 °F 92% 30.04 in 10.0 mi North 16.1 mph 19.6 mph N/A   Overcast
11:53 PM 29.3 °F 17.3 °F 26.8 °F 90% 30.04 in 7.0 mi North 17.3 mph 24.2 mph N/A Snow Light Snow